PRAETORIAN SDA_606

Last updated on Sat Oct 11 2025 00:02:05 GMT+0000 (Coordinated Universal Time)

1 65569U 25203E 25283.40555250 .00000022 00000+0 90989-5 0 9992 2 65569 81.3036 242.1758 0007438 143.2344 216.9324 13.84690218 4133
UTC large
Height (km)
Speed (km/s)
/
Latitude / Longitude
Inclination (degrees)
Orbital Period (minutes)
Azimuth
Elevation
Range (km)
Doppler Factor

Next 0 passes for location: London (51.5072 / 0.1276)

Sorry there are no passes over London.
PRAETORIAN SDA_606